Regional Weather Roundup
Issued by NWS

Home | Current Version | Previous Version | Graphics & Text | Print | Product List | Glossary On
Versions: 1 2 3 4 5 6 7 8 9 10 11 12 13 14 15 16 17 18 19 20 21 22 23 24 25 26 27 28 29 30 31 32 33 34 35 36 37 38 39 40 41 42 43 44 45 46 47 48 49 50
307
ASUS43 KBIS 021910
RWRND

NORTH DAKOTA REGIONAL WEATHER ROUNDUP
NATIONAL WEATHER SERVICE BISMARCK ND
100 PM CST FRI DEC 02 2016

NOTE: "FAIR" INDICATES FEW OR NO CLOUDS BELOW 12,000 FEET WITH NO
SIGNIFICANT WEATHER AND/OR OBSTRUCTIONS TO VISIBILITY.


NDZ001>003-009>011-017-022000-
NORTHWEST NORTH DAKOTA

CITY           SKY/WX    TMP DP  RH WIND       PRES   REMARKS
WILLISTON      CLOUDY    29  24  82 S6        30.17F
MINOT          CLOUDY    29  24  82 S6        30.19F
MINOT AFB      CLOUDY    27  24  86 S6        30.19R
$$

NDZ018>021-031>035-040>046-022000-
SOUTHWEST NORTH DAKOTA

CITY           SKY/WX    TMP DP  RH WIND       PRES   REMARKS
BISMARCK       CLOUDY    26  18  71 SE5       30.25F
DICKINSON      CLOUDY    25  22  88 W9        30.15S WCI  15
GARRISON         N/A     27  23  85 S10       30.20S WCI  17
HETTINGER ARPT CLOUDY    28  24  85 SW6       30.18S
$$

NDZ004>008-012>016-024-026-027-054-022000-
NORTHEAST NORTH DAKOTA

CITY           SKY/WX    TMP DP  RH WIND       PRES   REMARKS
GRAND FORKS    CLOUDY    32  21  64 N9        30.25F
GRND FRKS AFB  CLOUDY    31  22  67 N6        30.25F
DEVILS LAKE    CLOUDY    30  20  66 W6        30.23F
$$

NDZ022-023-025-028>030-036>039-047>053-022000-
SOUTHEAST NORTH DAKOTA

CITY           SKY/WX    TMP DP  RH WIND       PRES   REMARKS
FARGO          CLOUDY    30  21  69 NW9       30.27S
JAMESTOWN      CLOUDY    27  20  75 NW5       30.24S
$$





USA.gov is the U.S. government's official web portal to all federal, state and local government web resources and services.